Aeroporto :
LOGIN :

Iscrizione | Disclaimer

   EN    FR    IT 

 










Sommario :    VFR   VFR Marginale   IFR   IFR Intensivo   IFR Molto Intensivo
Visibilità : 
Base nubi : 
>= 8 km
>= 3000ft
5 / 8 km
1000 / 3000 ft
1500m / 5 km
500 / 1000 ft
800 / 1500m
200 / 500 ft
< 800m
< 200 ft
Simboli :   Temporali  Nebbia  Neve Forte  Precipitazioni Forti  Vento > 20 kt
SIGMETs :   Varie  Temporali  Ghiacco  Turbolenza  Onda orograficha  Ceneri Vulcaniche






- Altitudine del aeroporto : 23 ft
- Codice IATA : XFW


EDHI - Hamburg Finkenwerder

ULTIMO METAR :
  • 130850Z 19010KT 160V230 9999 BKN021 BKN048 04/01 Q0999

METARs OBSOLETI :
  • 130820Z 16004KT 100V230 9999 BKN020 04/01 Q0999
  • 130750Z 14005KT 110V170 CAVOK 03/01 Q0999
  • 130720Z 14006KT 110V170 CAVOK 01/00 Q0999
  • 130650Z 13006KT CAVOK 01/00 Q0999

TAF TAF EDHI
Valido dal 13 a 09 ore il 13 a 18 ore UTC


130800Z 1309/1318 18008KT 9999 BKN020
BECMG 1309/1311 BKN014
PROB40
TEMPO 1311/1318 BKN009



MetMap, La meteo Aeronautica in un colpo d'occhio ! - Copyright ORBIFLY Dicembre 2007 - Disclaimer

ORBIFLY MET'MAP TEAM :

Programmazione e sviluppo : Alexandra Zaïnal
Concezione e sviluppo : Baudouin d'Aumeries
Co-Programmazione e sviluppo : Marc-Olivier Méhu
Supporto tecnico e logistico : Manuel Goepfert
Aiuto per la traduzione : Arnaldo La Scala

Contatto : metmap@orbifly.com




FONTI E CREDITI :

   NOAA